This is the latest recevied weather packets stored in our database for station/object SV9FBP. If no packets are shown the sender has not sent any weather packets the latest 10 day(s).
| Time | Temp. | Humidity | Pressure | Rain* | Wind** | Luminosity | Snow |
|---|---|---|---|---|---|---|---|
| 1778118090 | 15.56° C | 70% | 1015.8 hPa | 0 mm | - | - | - |
| 1778117188 | 15.56° C | 70% | 1016 hPa | 0 mm | - | - | - |
| 1778116286 | 15.56° C | 70% | 1016 hPa | 0 mm | - | - | - |
| 1778115384 | 16.11° C | 70% | 1015.9 hPa | 0 mm | - | - | - |
| 1778114481 | 16.11° C | 70% | 1015.9 hPa | 0 mm | - | - | - |
| 1778113579 | 16.11° C | 70% | 1015.9 hPa | 0 mm | - | - | - |
| 1778112677 | 16.11° C | 71% | 1015.9 hPa | 0 mm | - | - | - |
| 1778111775 | 16.67° C | 71% | 1015.9 hPa | 0 mm | - | - | - |
| 1778110873 | 16.67° C | 71% | 1015.9 hPa | 0 mm | - | - | - |
| 1778109971 | 16.67° C | 71% | 1016 hPa | 0 mm | - | - | - |
| 1778109069 | 16.11° C | 74% | 1015.8 hPa | 0 mm | - | - | - |
| 1778108167 | 16.11° C | 76% | 1015.8 hPa | 0 mm | - | - | - |
| 1778107264 | 16.11° C | 77% | 1015.8 hPa | 0 mm | - | - | - |
| 1778106363 | 16.11° C | 77% | 1016.1 hPa | 0 mm | - | - | - |
| 1778105460 | 16.67° C | 77% | 1016.1 hPa | 0 mm | - | - | - |
| 1778104558 | 16.67° C | 78% | 1016.2 hPa | 0 mm | - | - | - |
| 1778103656 | 16.67° C | 78% | 1016.3 hPa | 0 mm | - | - | - |
| 1778102754 | 16.67° C | 77% | 1016.4 hPa | 0 mm | - | - | - |
| 1778101851 | 17.22° C | 77% | 1016.5 hPa | 0 mm | - | - | - |
| 1778100949 | 17.22° C | 78% | 1016.5 hPa | 0 mm | - | - | - |
| 1778100047 | 17.22° C | 78% | 1016.7 hPa | 0 mm | - | - | - |
| 1778099145 | 17.22° C | 78% | 1016.8 hPa | 0 mm | - | - | - |
| 1778098244 | 17.78° C | 74% | 1016.6 hPa | 0 mm | - | - | - |
| 1778097341 | 17.78° C | 73% | 1016.6 hPa | 0 mm | - | - | - |
| 1778096439 | 17.78° C | 73% | 1016.6 hPa | 0 mm | - | - | - |
* Rain latest hour (hover to see other rain measurements)
** Current wind speed in m/s (hover to see current wind gust speed)